Time,TemperatureF,DewpointF,PressureIn,WindDirection,WindDirectionDegrees,WindSpeedMPH,WindSpeedGustMPH,Humidity,HourlyPrecipIn,Conditions,Clouds,dailyrainin,SolarRadiationWatts/m^2,SoftwareType,DateUTC
2013-08-07 00:10:00,58.3,56.0,29.90,SSE,155,0.0,0.0,90,0.03,,,0.03,0,weatherlink.com 1.10,2013-08-07 08:10:00,
2013-08-07 00:25:00,58.2,55.0,29.90,SSE,155,0.0,1.0,89,0.02,,,0.03,0,weatherlink.com 1.10,2013-08-07 08:25:00,
2013-08-07 00:40:00,58.2,55.0,29.90,SSE,156,5.0,7.0,89,0.00,,,0.03,0,weatherlink.com 1.10,2013-08-07 08:40:00,
2013-08-07 00:55:00,58.1,55.0,29.90,SSE,156,0.0,4.0,90,0.00,,,0.03,0,weatherlink.com 1.10,2013-08-07 08:55:00,
2013-08-07 01:10:00,58.0,55.0,29.89,SSE,156,0.0,4.0,88,0.00,,,0.03,0,weatherlink.com 1.10,2013-08-07 09:10:00,
2013-08-07 01:25:00,58.0,55.0,29.89,SSE,156,3.0,6.0,88,0.00,,,0.03,0,weatherlink.com 1.10,2013-08-07 09:25:00,
2013-08-07 01:40:00,57.8,54.0,29.89,South,177,4.0,7.0,88,0.00,,,0.03,0,weatherlink.com 1.10,2013-08-07 09:40:00,
2013-08-07 01:55:00,57.8,55.0,29.89,South,182,0.0,4.0,89,0.00,,,0.03,0,weatherlink.com 1.10,2013-08-07 09:55:00,
2013-08-07 02:10:00,58.0,55.0,29.89,South,182,0.0,4.0,88,0.00,,,0.03,0,weatherlink.com 1.10,2013-08-07 10:10:00,
2013-08-07 02:25:00,58.0,55.0,29.89,South,182,0.0,2.0,88,0.00,,,0.03,0,weatherlink.com 1.10,2013-08-07 10:25:00,
2013-08-07 02:40:00,58.0,55.0,29.89,South,182,1.0,4.0,89,0.00,,,0.03,0,weatherlink.com 1.10,2013-08-07 10:40:00,
2013-08-07 02:55:00,57.7,54.0,29.89,South,182,4.0,7.0,88,0.00,,,0.03,0,weatherlink.com 1.10,2013-08-07 10:55:00,
2013-08-07 03:10:00,57.4,54.0,29.89,South,182,0.0,6.0,89,0.00,,,0.03,0,weatherlink.com 1.10,2013-08-07 11:10:00,
2013-08-07 03:25:00,57.5,55.0,29.88,South,182,0.0,3.0,90,0.01,,,0.04,0,weatherlink.com 1.10,2013-08-07 11:25:00,
2013-08-07 03:40:00,57.6,54.0,29.88,South,182,0.0,4.0,89,0.02,,,0.05,0,weatherlink.com 1.10,2013-08-07 11:40:00,
2013-08-07 03:55:00,56.8,55.0,29.87,South,182,0.0,8.0,92,0.02,,,0.05,0,weatherlink.com 1.10,2013-08-07 11:55:00,
2013-08-07 04:10:00,57.0,55.0,29.87,South,182,0.0,6.0,92,0.03,,,0.06,0,weatherlink.com 1.10,2013-08-07 12:10:00,
2013-08-07 04:25:00,57.2,55.0,29.87,South,182,0.0,4.0,91,0.02,,,0.06,0,weatherlink.com 1.10,2013-08-07 12:25:00,
2013-08-07 04:40:00,56.8,55.0,29.87,South,182,0.0,0.0,93,0.01,,,0.06,0,weatherlink.com 1.10,2013-08-07 12:40:00,
2013-08-07 04:55:00,57.0,55.0,29.86,South,182,2.0,8.0,92,0.00,,,0.06,0,weatherlink.com 1.10,2013-08-07 12:55:00,
2013-08-07 05:10:00,56.8,55.0,29.86,NW,307,4.0,8.0,92,0.00,,,0.06,0,weatherlink.com 1.10,2013-08-07 13:10:00,
2013-08-07 05:25:00,57.1,55.0,29.87,NW,307,1.0,4.0,91,0.00,,,0.06,0,weatherlink.com 1.10,2013-08-07 13:25:00,
2013-08-07 05:40:00,57.4,55.0,29.86,NW,307,0.0,4.0,90,0.00,,,0.06,0,weatherlink.com 1.10,2013-08-07 13:40:00,
2013-08-07 05:55:00,56.8,54.0,29.86,NW,307,0.0,4.0,91,0.00,,,0.06,0,weatherlink.com 1.10,2013-08-07 13:55:00,
2013-08-07 06:10:00,56.9,55.0,29.86,NW,307,1.0,4.0,92,0.00,,,0.06,0,weatherlink.com 1.10,2013-08-07 14:10:00,
2013-08-07 06:25:00,56.9,55.0,29.86,NW,307,0.0,4.0,92,0.00,,,0.06,0,weatherlink.com 1.10,2013-08-07 14:25:00,
2013-08-07 06:40:00,57.1,55.0,29.86,NW,307,1.0,4.0,92,0.00,,,0.06,7,weatherlink.com 1.10,2013-08-07 14:40:00,
2013-08-07 06:55:00,57.1,55.0,29.86,NW,307,0.0,5.0,92,0.00,,,0.06,14,weatherlink.com 1.10,2013-08-07 14:55:00,
2013-08-07 07:10:00,56.8,54.0,29.86,NW,307,0.0,2.0,91,0.00,,,0.06,19,weatherlink.com 1.10,2013-08-07 15:10:00,
2013-08-07 07:25:00,56.6,55.0,29.86,NW,307,0.0,2.0,93,0.00,,,0.06,30,weatherlink.com 1.10,2013-08-07 15:25:00,
2013-08-07 07:40:00,56.5,55.0,29.85,NW,307,0.0,0.0,93,0.01,,,0.07,33,weatherlink.com 1.10,2013-08-07 15:40:00,
2013-08-07 07:55:00,56.5,55.0,29.86,NW,307,0.0,0.0,93,0.02,,,0.08,32,weatherlink.com 1.10,2013-08-07 15:55:00,
2013-08-07 08:10:00,56.7,55.0,29.86,NW,307,0.0,1.0,93,0.02,,,0.08,35,weatherlink.com 1.10,2013-08-07 16:10:00,
2013-08-07 08:25:00,56.8,55.0,29.86,NW,307,0.0,1.0,93,0.02,,,0.08,26,weatherlink.com 1.10,2013-08-07 16:25:00,
2013-08-07 08:41:00,56.8,55.0,29.85,NW,307,0.0,0.0,93,0.01,,,0.08,33,weatherlink.com 1.10,2013-08-07 16:41:00,
2013-08-07 08:56:00,56.9,55.0,29.85,NW,307,0.0,2.0,93,0.00,,,0.08,40,weatherlink.com 1.10,2013-08-07 16:56:00,
2013-08-07 09:11:00,57.1,55.0,29.85,NW,307,0.0,1.0,93,0.00,,,0.08,46,weatherlink.com 1.10,2013-08-07 17:11:00,
2013-08-07 09:26:00,57.1,55.0,29.85,NW,307,0.0,1.0,93,0.00,,,0.08,42,weatherlink.com 1.10,2013-08-07 17:26:00,
2013-08-07 09:41:00,57.1,55.0,29.85,NE,54,1.0,5.0,91,0.00,,,0.08,42,weatherlink.com 1.10,2013-08-07 17:41:00,
2013-08-07 09:56:00,57.3,55.0,29.86,NE,54,0.0,1.0,90,0.00,,,0.08,53,weatherlink.com 1.10,2013-08-07 17:56:00,
2013-08-07 10:11:00,57.5,54.0,29.86,NE,54,0.0,2.0,89,0.00,,,0.08,63,weatherlink.com 1.10,2013-08-07 18:11:00,
2013-08-07 10:26:00,58.2,55.0,29.86,NE,54,0.0,2.0,89,0.00,,,0.08,65,weatherlink.com 1.10,2013-08-07 18:26:00,
2013-08-07 10:41:00,58.6,56.0,29.85,WNW,288,2.0,6.0,90,0.01,,,0.09,69,weatherlink.com 1.10,2013-08-07 18:41:00,
2013-08-07 10:56:00,57.8,56.0,29.85,WNW,288,1.0,5.0,92,0.02,,,0.10,65,weatherlink.com 1.10,2013-08-07 18:56:00,
2013-08-07 11:11:00,57.5,56.0,29.85,West,259,4.0,5.0,93,0.02,,,0.10,65,weatherlink.com 1.10,2013-08-07 19:11:00,
2013-08-07 11:26:00,57.3,55.0,29.85,West,261,0.0,5.0,93,0.03,,,0.11,72,weatherlink.com 1.10,2013-08-07 19:26:00,
2013-08-07 11:41:00,57.6,55.0,29.85,West,261,0.0,2.0,92,0.03,,,0.12,79,weatherlink.com 1.10,2013-08-07 19:41:00,
2013-08-07 11:56:00,58.3,56.0,29.84,West,261,0.0,2.0,91,0.02,,,0.12,84,weatherlink.com 1.10,2013-08-07 19:56:00,
2013-08-07 12:11:00,57.8,55.0,29.84,West,261,1.0,4.0,89,0.03,,,0.13,127,weatherlink.com 1.10,2013-08-07 20:11:00,
2013-08-07 12:26:00,58.1,55.0,29.84,West,261,3.0,5.0,89,0.02,,,0.13,148,weatherlink.com 1.10,2013-08-07 20:26:00,
2013-08-07 12:41:00,57.5,55.0,29.83,West,264,5.0,6.0,90,0.01,,,0.13,149,weatherlink.com 1.10,2013-08-07 20:41:00,
2013-08-07 12:56:00,57.5,55.0,29.83,West,261,6.0,7.0,90,0.01,,,0.13,250,weatherlink.com 1.10,2013-08-07 20:56:00,
2013-08-07 13:11:00,58.3,56.0,29.83,West,265,4.0,5.0,91,0.00,,,0.13,221,weatherlink.com 1.10,2013-08-07 21:11:00,
2013-08-07 13:26:00,59.3,56.0,29.83,West,265,2.0,5.0,89,0.00,,,0.13,156,weatherlink.com 1.10,2013-08-07 21:26:00,
2013-08-07 13:41:00,59.4,57.0,29.83,West,261,5.0,6.0,91,0.00,,,0.13,172,weatherlink.com 1.10,2013-08-07 21:41:00,
2013-08-07 13:56:00,58.4,56.0,29.82,West,271,7.0,9.0,91,0.00,,,0.13,248,weatherlink.com 1.10,2013-08-07 21:56:00,
2013-08-07 14:11:00,58.3,56.0,29.82,WSW,253,6.0,9.0,92,0.00,,,0.13,251,weatherlink.com 1.10,2013-08-07 22:11:00,
2013-08-07 14:26:00,58.5,55.0,29.81,WSW,252,5.0,8.0,88,0.00,,,0.13,236,weatherlink.com 1.10,2013-08-07 22:26:00,
2013-08-07 14:41:00,59.0,54.0,29.82,SW,223,4.0,8.0,82,0.00,,,0.13,257,weatherlink.com 1.10,2013-08-07 22:41:00,
2013-08-07 14:56:00,59.6,54.0,29.82,SW,221,0.0,7.0,83,0.00,,,0.13,174,weatherlink.com 1.10,2013-08-07 22:56:00,
2013-08-07 15:11:00,60.3,55.0,29.82,SW,221,1.0,5.0,82,0.00,,,0.13,135,weatherlink.com 1.10,2013-08-07 23:11:00,
2013-08-07 15:26:00,59.7,54.0,29.81,SW,229,0.0,7.0,82,0.00,,,0.13,125,weatherlink.com 1.10,2013-08-07 23:26:00,
2013-08-07 15:41:00,59.4,54.0,29.80,WSW,238,0.0,7.0,83,0.00,,,0.13,114,weatherlink.com 1.10,2013-08-07 23:41:00,
2013-08-07 15:56:00,60.1,55.0,29.80,WSW,238,0.0,0.0,83,0.00,,,0.13,93,weatherlink.com 1.10,2013-08-07 23:56:00,
2013-08-07 16:11:00,60.9,54.0,29.80,WSW,238,5.0,5.0,78,0.00,,,0.13,95,weatherlink.com 1.10,2013-08-08 00:11:00,
2013-08-07 16:26:00,60.7,54.0,29.80,WSW,238,2.0,6.0,78,0.00,,,0.13,98,weatherlink.com 1.10,2013-08-08 00:26:00,
2013-08-07 16:41:00,60.4,54.0,29.80,WSW,238,0.0,5.0,80,0.00,,,0.13,86,weatherlink.com 1.10,2013-08-08 00:41:00,
2013-08-07 16:56:00,60.6,54.0,29.80,WSW,238,1.0,3.0,80,0.00,,,0.13,81,weatherlink.com 1.10,2013-08-08 00:56:00,
2013-08-07 17:11:00,60.7,56.0,29.80,WSW,238,3.0,4.0,84,0.00,,,0.13,91,weatherlink.com 1.10,2013-08-08 01:11:00,
2013-08-07 17:26:00,60.7,56.0,29.80,WSW,238,2.0,4.0,85,0.00,,,0.13,97,weatherlink.com 1.10,2013-08-08 01:26:00,
2013-08-07 17:41:00,60.9,57.0,29.80,WSW,238,0.0,5.0,87,0.00,,,0.13,98,weatherlink.com 1.10,2013-08-08 01:41:00,
2013-08-07 17:56:00,60.9,56.0,29.80,WSW,238,0.0,5.0,84,0.00,,,0.13,72,weatherlink.com 1.10,2013-08-08 01:56:00,
2013-08-07 18:11:00,61.2,56.0,29.80,WSW,238,0.0,1.0,84,0.00,,,0.13,46,weatherlink.com 1.10,2013-08-08 02:11:00,
2013-08-07 18:26:00,61.1,56.0,29.79,WSW,238,0.0,3.0,84,0.00,,,0.13,54,weatherlink.com 1.10,2013-08-08 02:26:00,
2013-08-07 18:41:00,60.6,55.0,29.79,WSW,238,1.0,5.0,83,0.00,,,0.13,42,weatherlink.com 1.10,2013-08-08 02:41:00,
2013-08-07 18:56:00,61.1,56.0,29.78,WSW,238,0.0,5.0,83,0.00,,,0.13,37,weatherlink.com 1.10,2013-08-08 02:56:00,
2013-08-07 19:11:00,60.9,56.0,29.78,WSW,247,5.0,5.0,83,0.00,,,0.13,32,weatherlink.com 1.10,2013-08-08 03:11:00,
2013-08-07 19:26:00,60.8,56.0,29.77,West,261,3.0,6.0,83,0.00,,,0.13,26,weatherlink.com 1.10,2013-08-08 03:26:00,
2013-08-07 19:41:00,60.6,55.0,29.77,West,261,0.0,5.0,81,0.00,,,0.13,28,weatherlink.com 1.10,2013-08-08 03:41:00,
2013-08-07 19:56:00,60.7,56.0,29.77,WSW,252,0.0,1.0,84,0.00,,,0.13,19,weatherlink.com 1.10,2013-08-08 03:56:00,
2013-08-07 20:11:00,60.5,56.0,29.77,SW,226,0.0,1.0,85,0.00,,,0.13,12,weatherlink.com 1.10,2013-08-08 04:11:00,
2013-08-07 20:26:00,60.2,56.0,29.77,SW,226,0.0,1.0,87,0.01,,,0.14,11,weatherlink.com 1.10,2013-08-08 04:26:00,
2013-08-07 20:41:00,59.8,56.0,29.76,SW,226,2.0,4.0,88,0.01,,,0.14,7,weatherlink.com 1.10,2013-08-08 04:41:00,
2013-08-07 20:56:00,59.6,56.0,29.76,SW,226,2.0,5.0,89,0.01,,,0.14,7,weatherlink.com 1.10,2013-08-08 04:56:00,
2013-08-07 21:11:00,59.5,56.0,29.76,SW,226,2.0,5.0,88,0.01,,,0.00,5,weatherlink.com 1.10,2013-08-08 05:11:00,
2013-08-07 21:27:00,59.4,56.0,29.76,SW,226,1.0,5.0,88,0.00,,,0.00,0,weatherlink.com 1.10,2013-08-08 05:27:00,
2013-08-07 21:42:00,59.3,56.0,29.76,SW,226,0.0,5.0,88,0.00,,,0.00,0,weatherlink.com 1.10,2013-08-08 05:42:00,
2013-08-07 21:57:00,59.4,56.0,29.75,SW,226,2.0,5.0,88,0.00,,,0.00,0,weatherlink.com 1.10,2013-08-08 05:57:00,
2013-08-07 22:12:00,59.4,55.0,29.75,SW,226,4.0,5.0,86,0.00,,,0.00,0,weatherlink.com 1.10,2013-08-08 06:12:00,
2013-08-07 22:27:00,59.2,55.0,29.75,SW,228,0.0,2.0,85,0.00,,,0.00,0,weatherlink.com 1.10,2013-08-08 06:27:00,
2013-08-07 22:42:00,59.1,55.0,29.76,SW,227,0.0,0.0,87,0.00,,,0.00,0,weatherlink.com 1.10,2013-08-08 06:42:00,
2013-08-07 22:57:00,59.2,55.0,29.75,SW,228,0.0,1.0,86,0.00,,,0.00,0,weatherlink.com 1.10,2013-08-08 06:57:00,
2013-08-07 23:12:00,59.8,56.0,29.75,SW,227,2.0,2.0,86,0.00,,,0.00,0,weatherlink.com 1.10,2013-08-08 07:12:00,
2013-08-07 23:27:00,59.2,56.0,29.75,SW,228,4.0,5.0,89,0.00,,,0.00,0,weatherlink.com 1.10,2013-08-08 07:27:00,
2013-08-07 23:42:00,59.3,56.0,29.75,WSW,245,0.0,6.0,90,0.00,,,0.00,0,weatherlink.com 1.10,2013-08-08 07:42:00,
2013-08-07 23:57:00,59.4,57.0,29.75,West,266,4.0,5.0,90,0.00,,,0.00,0,weatherlink.com 1.10,2013-08-08 07:57:00,